This is the latest recevied weather packets stored in our database for station/object KE5AKC. If no packets are shown the sender has not sent any weather packets the latest 10 day(s).
| Time | Temp. | Humidity | Pressure | Rain* | Wind** | Luminosity | Snow |
|---|---|---|---|---|---|---|---|
| 1777491279 | 31.11° C | 65% | 1010.7 hPa | 0 mm | - | 756 W/m² | - |
| 1777490975 | 31.11° C | 65% | 1010.3 hPa | 0 mm | - | 976 W/m² | - |
| 1777490671 | 30.56° C | 67% | 1010.7 hPa | 0 mm | - | 550 W/m² | - |
| 1777490366 | 30.56° C | 67% | 1010.7 hPa | 0 mm | - | 511 W/m² | - |
| 1777490064 | 30.56° C | 66% | 1011.3 hPa | 0 mm | - | 380 W/m² | - |
| 1777489761 | 30° C | 68% | 1011.3 hPa | 0 mm | - | 663 W/m² | - |
| 1777489459 | 30° C | 68% | 1011.3 hPa | 0 mm | - | 265 W/m² | - |
| 1777489155 | 30° C | 68% | 1011.7 hPa | 0 mm | - | 288 W/m² | - |
| 1777488853 | 30° C | 68% | 1011.7 hPa | 0 mm | - | 340 W/m² | - |
| 1777488549 | 30° C | 69% | 1011.7 hPa | 0 mm | - | 605 W/m² | - |
| 1777488247 | 30° C | 68% | 1012 hPa | 0 mm | - | 586 W/m² | - |
| 1777487945 | 29.44° C | 68% | 1011.7 hPa | 0 mm | - | 441 W/m² | - |
| 1777487643 | 29.44° C | 69% | 1011.7 hPa | 0 mm | - | 414 W/m² | - |
| 1777487340 | 29.44° C | 69% | 1011.7 hPa | 0 mm | - | 587 W/m² | - |
| 1777487037 | 30° C | 69% | 1012 hPa | 0 mm | - | 254 W/m² | - |
| 1777486733 | 30° C | 69% | 1012 hPa | 0 mm | - | 413 W/m² | - |
| 1777486431 | 30° C | 69% | 1012.4 hPa | 0 mm | - | 765 W/m² | - |
| 1777486128 | 30° C | 70% | 1012.4 hPa | 0 mm | - | 279 W/m² | - |
| 1777482036 | 29.44° C | 72% | 1013 hPa | 0 mm | - | 322 W/m² | - |
| 1777481734 | 29.44° C | 72% | 1013 hPa | 0 mm | - | 322 W/m² | - |
| 1777481431 | 28.89° C | 73% | 1013 hPa | 0 mm | - | 312 W/m² | - |
| 1777481127 | 28.89° C | 73% | 1013 hPa | 0 mm | - | 386 W/m² | - |
| 1777480824 | 28.33° C | 73% | 1013 hPa | 0 mm | - | 400 W/m² | - |
| 1777480521 | 28.33° C | 75% | 1013.4 hPa | 0 mm | - | 314 W/m² | - |
| 1777480217 | 28.33° C | 74% | 1013.4 hPa | 0 mm | - | 229 W/m² | - |
* Rain latest hour (hover to see other rain measurements)
** Current wind speed in m/s (hover to see current wind gust speed)